Weather History for International Falls, MN

Change the Weather History Date:

Tuesday, November 6, 2012

  Actual Average Record
Temperature  
Mean Temperature 36 °F 31 °F  
Max Temperature 38 °F 40 °F 65 °F (1975)
Min Temperature 33 °F 23 °F -5 °F (1991)
Degree Days  
Heating Degree Days 29 34  
Month to date heating degree days 215 194  
Since 1 July heating degree days 1537 1471  
Cooling Degree Days 0 0  
Month to date cooling degree days 0 0  
Year to date cooling degree days 222 192  
Moisture  
Dew Point 34 °F    
Average Humidity 96    
Maximum Humidity 100    
Minimum Humidity 92    
Precipitation  
Precipitation 0.20 in 0.06 in 0.71 in (1996)
Month to date precipitation 0.24 0.32  
Year to date precipitation 23.18 22.35  
Snow  
Snow 0.50 in 0.30 in 3.80 in (1955)
Month to date snowfall 0.7 1.7  
Since 1 July snowfall 2.4 4.0  
Since 1 September snowfall 2.4 4.0  
Snow Depth 0.00 in    
Sea Level Pressure  
Sea Level Pressure 29.77 in    
Wind  
Wind Speed 6 mph (West)    
Max Wind Speed 10 mph    
Max Gust Speed 15 mph    
Visibility 6 miles    
Events Rain , Snow    
T = Trace of Precipitation, MM = Missing Value Source: NWS Daily Summary

Daily Weather History Graph

Daily Weather History Graph

Search for Another Location

Airport:

Trip Planner

Search our weather history database for the weather conditions in past years. The results will help you decide how hot, cold, wet, or windy it might be!

Date:

Astronomy

Nov. 06, 2012 Rise Set
Actual Time 7:08 AM CST 4:45 PM CST
Civil Twilight 6:35 AM CST 5:18 PM CST
Nautical Twilight 5:57 AM CST 5:56 PM CST
Astronomical Twilight 5:20 AM CST 6:32 PM CST
Moon 11:31 PM CST (11/6) 12:56 PM CST (11/6)
Length of Visible Light 10h 43m
Length of Day
9h 36m
Waning Gibbous, 53% of the Moon is Illuminated
Nov 6
Waning Gibbous
Nov 6
Last Quarter
Nov 13
New
Nov 20
First Quarter
Nov 28
Full

Hourly Weather History & Observations

Time (CST) Temp. Windchill Dew Point Humidity Pressure Visibility Wind Dir Wind Speed Gust Speed Precip Events Conditions
12:55 AM 33.1 °F 26.1 °F 32.0 °F 96% 29.80 in 3.0 mi SE 8.1 mph - 0.04 in Snow Light Snow
1:03 AM 33.8 °F 27.0 °F 32.0 °F 93% 29.74 in 2.0 mi SE 8.1 mph - 0.00 in Snow Light Snow
1:07 AM 33.8 °F 27.7 °F 32.0 °F 93% 29.74 in 1.5 mi SE 6.9 mph - 0.00 in Snow Light Snow
1:55 AM 33.1 °F 26.9 °F 32.0 °F 96% 29.77 in 2.5 mi SSE 6.9 mph - 0.03 in Snow Light Snow
2:06 AM 33.8 °F 27.7 °F 32.0 °F 93% 29.72 in 1.5 mi SE 6.9 mph - 0.01 in Snow Light Snow
2:55 AM 33.1 °F 25.5 °F 32.0 °F 96% 29.73 in 1.5 mi SSE 9.2 mph - 0.04 in Snow Light Snow
3:40 AM 33.8 °F 27.7 °F 32.0 °F 93% 29.66 in 2.0 mi SSE 6.9 mph - 0.03 in Snow Light Snow
3:55 AM 33.1 °F 26.9 °F 32.0 °F 96% 29.70 in 5.0 mi SSE 6.9 mph - 0.03 in   Overcast
4:55 AM 33.1 °F 27.7 °F 32.0 °F 96% 29.69 in 4.0 mi SSE 5.8 mph - N/A   Overcast
5:25 AM 33.8 °F 27.7 °F 32.0 °F 93% 29.63 in 2.0 mi SSE 6.9 mph - 0.00 in Snow Light Snow
5:55 AM 33.1 °F 28.7 °F 32.0 °F 96% 29.68 in 2.5 mi SSE 4.6 mph - 0.01 in Snow Light Snow
6:55 AM 33.1 °F 30.0 °F 32.0 °F 96% 29.67 in 2.5 mi SSE 3.5 mph - 0.02 in Snow Light Snow
7:05 AM 33.8 °F 30.8 °F 32.0 °F 93% 29.63 in 3.0 mi SSE 3.5 mph - 0.00 in Snow Light Snow
7:21 AM 33.8 °F - 32.0 °F 93% 29.63 in 2.5 mi Calm Calm - 0.00 in Snow Light Snow
7:27 AM 33.8 °F 30.8 °F 32.0 °F 93% 29.63 in 3.0 mi SSE 3.5 mph - 0.00 in Snow Light Snow
7:36 AM 33.8 °F 30.8 °F 32.0 °F 93% 29.63 in 2.0 mi SSE 3.5 mph - 0.00 in Snow Light Snow
7:55 AM 33.1 °F 30.0 °F 32.0 °F 96% 29.68 in 1.5 mi SSE 3.5 mph - 0.00 in Snow Light Snow
8:55 AM 33.1 °F 30.0 °F 33.1 °F 100% 29.69 in 1.5 mi SW 3.5 mph - 0.01 in   Overcast
9:39 AM 33.8 °F 30.8 °F 33.8 °F 100% 29.66 in 2.0 mi West 3.5 mph - N/A   Overcast
9:50 AM 35.6 °F 30.7 °F 33.8 °F 93% 29.66 in 1.8 mi West 5.8 mph - N/A   Overcast
9:55 AM 35.1 °F 31.0 °F 34.0 °F 96% 29.70 in 1.5 mi West 4.6 mph - N/A   Overcast
10:08 AM 35.6 °F 31.7 °F 33.8 °F 93% 29.66 in 2.0 mi West 4.6 mph - N/A   Overcast
10:21 AM 35.6 °F 30.7 °F 33.8 °F 93% 29.66 in 3.0 mi West 5.8 mph - N/A   Overcast
10:55 AM 36.0 °F 29.6 °F 34.0 °F 93% 29.72 in 10.0 mi WNW 8.1 mph - N/A   Overcast
11:55 AM 36.0 °F 31.1 °F 34.0 °F 93% 29.73 in 5.0 mi West 5.8 mph - 0.00 in Rain Light Rain
12:55 PM 37.0 °F 31.6 °F 35.1 °F 93% 29.75 in 10.0 mi NW 6.9 mph - 0.00 in   Overcast
1:19 PM 37.4 °F 31.4 °F 35.6 °F 93% 29.71 in 6.0 mi WNW 8.1 mph - 0.00 in Rain Light Rain
1:40 PM 37.4 °F 32.1 °F 35.6 °F 93% 29.72 in 10.0 mi WNW 6.9 mph - 0.00 in   Overcast
1:55 PM 37.0 °F 31.6 °F 35.1 °F 93% 29.77 in 10.0 mi WNW 6.9 mph - 0.00 in   Overcast
2:13 PM 37.4 °F 31.4 °F 35.6 °F 93% 29.73 in 10.0 mi WNW 8.1 mph - 0.01 in Rain Light Rain
2:30 PM 35.6 °F 30.7 °F 35.6 °F 100% 29.74 in 2.5 mi WNW 5.8 mph - 0.01 in Rain Light Rain
2:39 PM 37.4 °F 32.1 °F 35.6 °F 93% 29.74 in 3.0 mi NW 6.9 mph - 0.01 in Rain Light Rain
2:55 PM 37.0 °F 31.6 °F 36.0 °F 96% 29.80 in 3.0 mi NW 6.9 mph - 0.02 in   Overcast
3:04 PM 37.4 °F 31.4 °F 35.6 °F 93% 29.76 in 2.5 mi NW 8.1 mph - 0.00 in Rain Light Rain
3:11 PM 35.6 °F 29.9 °F 35.6 °F 100% 29.76 in 4.0 mi NW 6.9 mph - 0.00 in Rain Light Rain
3:55 PM 37.0 °F 33.3 °F 35.1 °F 93% 29.83 in 10.0 mi NNW 4.6 mph - 0.00 in   Overcast
4:44 PM 37.4 °F 32.8 °F 35.6 °F 93% 29.81 in 10.0 mi NNW 5.8 mph - N/A   Overcast
4:55 PM 37.0 °F 32.4 °F 35.1 °F 93% 29.87 in 10.0 mi NNW 5.8 mph - N/A   Overcast
5:45 PM 35.6 °F 31.7 °F 35.6 °F 100% 29.84 in 10.0 mi NW 4.6 mph - N/A   Overcast
5:55 PM 36.0 °F 30.3 °F 35.1 °F 97% 29.90 in 10.0 mi NW 6.9 mph - N/A   Overcast
6:04 PM 35.6 °F 29.9 °F 35.6 °F 100% 29.85 in 10.0 mi NW 6.9 mph - N/A   Overcast
6:14 PM 35.6 °F 30.7 °F 35.6 °F 100% 29.86 in 10.0 mi NW 5.8 mph - N/A   Overcast
6:55 PM 36.0 °F 30.3 °F 35.1 °F 97% 29.91 in 10.0 mi NW 6.9 mph - N/A   Overcast
7:06 PM 35.6 °F 29.9 °F 35.6 °F 100% 29.87 in 10.0 mi NW 6.9 mph - N/A   Overcast
7:26 PM 35.6 °F 29.2 °F 35.6 °F 100% 29.88 in 10.0 mi NW 8.1 mph - N/A   Overcast
7:41 PM 35.6 °F 29.9 °F 35.6 °F 100% 29.88 in 10.0 mi NW 6.9 mph - N/A   Overcast
7:55 PM 36.0 °F 31.1 °F 35.1 °F 97% 29.94 in 10.0 mi NW 5.8 mph - N/A   Overcast
8:55 PM 36.0 °F 30.3 °F 35.1 °F 97% 29.95 in 10.0 mi NW 6.9 mph - N/A   Overcast
9:55 PM 36.0 °F 31.1 °F 35.1 °F 97% 29.96 in 10.0 mi NW 5.8 mph - N/A   Overcast
10:07 PM 35.6 °F 29.9 °F 35.6 °F 100% 29.92 in 10.0 mi NW 6.9 mph - N/A   Overcast
10:55 PM 36.0 °F 30.3 °F 34.0 °F 93% 29.97 in 10.0 mi WNW 6.9 mph - N/A   Overcast
11:55 PM 36.0 °F 31.1 °F 34.0 °F 93% 29.99 in 10.0 mi WNW 5.8 mph - N/A   Overcast